Regional Weather Roundup
Issued by NWS

Home | Current Version | Previous Version | Text Only | Print | Product List | Glossary On
Versions: 1 2 3 4 5 6 7 8 9 10 11 12 13 14 15 16 17 18 19 20 21 22 23 24 25 26 27 28 29 30 31 32 33 34 35 36 37 38 39 40 41 42 43 44 45 46 47 48 49 50
000
ASUS43 KLSX 230007
RWRMO

WEATHER SUMMARY FOR MISSOURI
NATIONAL WEATHER SERVICE SPRINGFIELD MO
700 PM CDT THU JUN 22 2017

NOTE: "FAIR" INDICATES FEW OR NO CLOUDS BELOW 12,000 FEET WITH NO
       SIGNIFICANT WEATHER AND/OR OBSTRUCTIONS TO VISIBILITY.
       CURRENT SKY AND/OR WEATHER CONDITIONS ARE NOT AVAILABLE FOR
       CHILLICOTHE AND FARMINGTON.

MOZ001>031-035>038-043-044-053-054-230100-
...NORTHERN AND WESTERN MISSOURI...

CITY           SKY/WX    TMP DP  RH WIND       PRES   REMARKS
KANSAS CTY INT MOSUNNY   84  72  67 S13       29.64F
6HR MIN TEMP:  83; 6HR MAX TEMP:  87;

KANSAS C DTWN  MOSUNNY   87  72  60 S15       29.63F HX  93
6HR MIN TEMP:  86; 6HR MAX TEMP:  88;

LEE`S SUMMIT   MOSUNNY   85  73  67 SE18      29.66F HX  91
6HR MIN TEMP:  82; 6HR MAX TEMP:  87;

ST JOSEPH      MOSUNNY   86  73  65 S10       29.64R HX  93
6HR MIN TEMP:  85; 6HR MAX TEMP:  90;

CHILLICOTHE      N/A     85  74  69 S10G16    29.66F HX  92
6HR MIN TEMP:  82; 6HR MAX TEMP:  86;

KIRKSVILLE     SUNNY     83  72  69 S9        29.69F
6HR MIN TEMP:  83; 6HR MAX TEMP:  86;


$$
MOZ066>068-077>081-088>096-101>105-230100-
...SOUTHWEST MISSOURI...

CITY           SKY/WX    TMP DP  RH WIND       PRES   REMARKS
SPRINGFIELD    MOSUNNY   85  72  65 SE13      29.71S HX  91
6HR MIN TEMP:  79; 6HR MAX TEMP:  86;

JOPLIN         MOSUNNY   84  75  74 S9        29.68S HX  92
6HR MIN TEMP:  83; 6HR MAX TEMP:  89;

BRANSON        PTSUNNY   81  73  78 SE8       29.74R

$$
MOZ032>034-039>042-045>050-055>058-069>072-230100-
...CENTRAL MISSOURI...

CITY           SKY/WX    TMP DP  RH WIND       PRES   REMARKS
COLUMBIA       CLOUDY    83  74  74 SE8       29.72S
6HR MIN TEMP:  80; 6HR MAX TEMP:  86;

JEFFERSON CITY CLOUDY    85  72  65 SE8       29.69F HX  91
6HR MIN TEMP:  82; 6HR MAX TEMP:  87;

ROLLA          MOSUNNY   82  73  74 S8        29.73F
6HR MIN TEMP:  81; 6HR MAX TEMP:  84;

SEDALIA        PTSUNNY   83  76  79 S8        29.71F HX  91
6HR MIN TEMP:  81; 6HR MAX TEMP:  86;

WHITEMAN AFB   PTSUNNY   83  76  80 S10       29.68F HX  91
WARRENSBURG    CLOUDY    82  72  69 SE8       29.68F
OSAGE BEACH    CLOUDY    83  74  74 SE5       29.72S

$$
MOZ051-052-059>065-230100-
...EAST CENTRAL MISSOURI...

CITY           SKY/WX    TMP DP  RH WIND       PRES   REMARKS
ST LOUIS INTL  CLOUDY    86  70  58 S7        29.74F HX  90
6HR MIN TEMP:  83; 6HR MAX TEMP:  87;

SPIRIT OF STL  CLOUDY    84  74  71 SE7       29.72F HX  91
6HR MIN TEMP:  80; 6HR MAX TEMP:  85;

ST CHARLES     CLOUDY    84  73  69 MISG      29.72F HX  90
6HR MIN TEMP:  79; 6HR MAX TEMP:  86;


$$
MOZ072>076-082>087-097>100-106>115-230100-
...SOUTH CENTRAL AND SOUTHEAST MISSOURI...

CITY           SKY/WX    TMP DP  RH WIND       PRES   REMARKS
CAPE GIRARDEAU CLOUDY    81  74  79 E7        29.75F
6HR MIN TEMP:  77; 6HR MAX TEMP:  83; 6HR PCP:  0.02;

FARMINGTON     CLOUDY    79  74  84 SE7       29.77F
6HR MIN TEMP:  76; 6HR MAX TEMP:  83; 6HR PCP: TRACE;

POPLAR BLUFF   CLOUDY    78  77  96 CALM      29.73F
6HR MIN TEMP:  76; 6HR MAX TEMP:  87; 6HR PCP:  1.04;

WEST PLAINS    CLOUDY    83  73  72 SE6       29.75S
6HR MIN TEMP:  76; 6HR MAX TEMP:  86; 6HR PCP: TRACE;


$$




USA.gov is the U.S. government's official web portal to all federal, state and local government web resources and services.